This is the latest recevied weather packets stored in our database for station/object N7NIP. If no packets are shown the sender has not sent any weather packets the latest 10 day(s).
| Time | Temp. | Humidity | Pressure | Rain* | Wind** | Luminosity | Snow |
|---|---|---|---|---|---|---|---|
| 1777860823 | 23.33° C | 48% | 1023.8 hPa | 0 mm | - | 42 W/m² | - |
| 1777860520 | 23.33° C | 47% | 1023.7 hPa | 0 mm | - | 44 W/m² | - |
| 1777860216 | 23.33° C | 45% | 1023.8 hPa | 0 mm | - | 45 W/m² | - |
| 1777859912 | 23.89° C | 46% | 1023.9 hPa | 0 mm | - | 49 W/m² | - |
| 1777859608 | 24.44° C | 45% | 1023.6 hPa | 0 mm | - | 53 W/m² | - |
| 1777859305 | 25.56° C | 44% | 1023.7 hPa | 0 mm | - | 57 W/m² | - |
| 1777859001 | 26.11° C | 43% | 1024 hPa | 0 mm | - | 135 W/m² | - |
| 1777858699 | 26.11° C | 43% | 1023.7 hPa | 0 mm | - | 155 W/m² | - |
| 1777858397 | 26.11° C | 42% | 1024 hPa | 0 mm | - | 172 W/m² | - |
| 1777858093 | 25.56° C | 43% | 1023.8 hPa | 0 mm | - | 188 W/m² | - |
| 1777857791 | 25.56° C | 41% | 1024.1 hPa | 0 mm | - | 203 W/m² | - |
| 1777857488 | 26.67° C | 40% | 1024.1 hPa | 0 mm | - | 220 W/m² | - |
| 1777857184 | 27.78° C | 39% | 1024 hPa | 0 mm | - | 236 W/m² | - |
| 1777856880 | 27.22° C | 40% | 1024 hPa | 0 mm | - | 253 W/m² | - |
| 1777856576 | 27.22° C | 39% | 1024.1 hPa | 0 mm | - | 273 W/m² | - |
| 1777856273 | 26.67° C | 39% | 1024.2 hPa | 0 mm | - | 298 W/m² | - |
| 1777855970 | 26.67° C | 43% | 1024.3 hPa | 0 mm | - | 315 W/m² | - |
| 1777855668 | 26.67° C | 40% | 1024.3 hPa | 0 mm | - | 331 W/m² | - |
| 1777855365 | 26.67° C | 41% | 1024.2 hPa | 0 mm | - | 345 W/m² | - |
| 1777855061 | 26.67° C | 39% | 1024.2 hPa | 0 mm | - | 363 W/m² | - |
| 1777854758 | 27.22° C | 39% | 1024.4 hPa | 0 mm | - | 382 W/m² | - |
| 1777854454 | 27.22° C | 39% | 1024.5 hPa | 0 mm | - | 402 W/m² | - |
| 1777854151 | 27.22° C | 39% | 1024.3 hPa | 0 mm | - | 420 W/m² | - |
| 1777853849 | 27.22° C | 41% | 1024.4 hPa | 0 mm | - | 439 W/m² | - |
| 1777853546 | 27.22° C | 39% | 1024.3 hPa | 0 mm | - | 453 W/m² | - |
* Rain latest hour (hover to see other rain measurements)
** Current wind speed in m/s (hover to see current wind gust speed)